Regional Weather Roundup
Issued by NWS Cleveland, OH

Home | Current Version | Previous Version | Text Only | Print | Product List | Glossary Off
Versions: 1 2 3 4 5 6 7 8 9 10 11 12 13 14 15 16 17 18 19 20 21 22 23 24 25 26 27 28 29 30 31 32 33 34 35 36 37 38 39 40 41 42 43 44 45 46 47 48 49 50

709
ASUS41 KCLE 261400
RWRCLE
OHIO REGIONAL WEATHER ROUNDUP
NATIONAL WEATHER SERVICE WILMINGTON, OH
1000 AM EDT SUN MAR 26 2017

NOTE: "FAIR" INDICATES FEW OR NO CLOUDS BELOW 12,000 FEET WITH NO
SIGNIFICANT WEATHER AND/OR OBSTRUCTIONS TO VISIBILITY.

OHZ001>008-015>018-024>027-034-035-043-044-261500-
   NORTHWEST OHIO

CITY           SKY/WX    TMP DP  RH WIND       PRES   REMARKS
DEFIANCE       LGT RAIN  40  38  93 E8        29.99S FOG
FINDLAY        LGT RAIN  43  39  86 E7        30.00R FOG
TOLEDO EXPRESS LGT RAIN  39  38  96 E7        30.00F
TOLEDO EXEC    CLOUDY    40  38  93 SE8       30.04R FOG
LIMA           LGT RAIN  47  46  97 SE7       29.98F FOG
$$

OHZ009>014-019>023-028>033-038-089-261500-
   NORTHEAST OHIO

CITY           SKY/WX    TMP DP  RH WIND       PRES   REMARKS
CLE-HOPKINS    CLOUDY    63  49  60 SE17      30.01F
CLE-LAKEFRONT  PTSUNNY   63  49  60 SE18G25   29.98S
CUY CO. ARPT   CLOUDY    63  52  67 S14G24    30.01F
LORAIN-ELYRIA  PTSUNNY   61  49  64 S12       29.99F
ASHTABULA      FAIR      55  47  74 SE13G21   30.06F
AKRON-CANTON   CLOUDY    63  49  60 S15       30.04S
WOOSTER        NOT AVBL
MANSFIELD      FAIR      62  49  62 S13       30.00S
YOUNGSTOWN     CLOUDY    57  47  69 SE14G22   30.07S
$$

OHZ042-051>053-060>062-070>072-077>081-261500-
  SOUTHWEST OHIO

CITY           SKY/WX    TMP DP  RH WIND       PRES   REMARKS
CINC-COVINGTON CLOUDY    58  56  93 S10       29.99S
CINC-LUNKEN    CLOUDY    59  57  93 S6        30.00F
HAMILTON       CLOUDY    60  56  86 VRB5      30.00S
DAYTON         NOT AVBL
WRIGHT-PAT AFB NOT AVBL
DAYTON GENERAL CLOUDY    58  55  90 S15       29.98F
WILMINGTON     LGT RAIN  57  55  93 S10       30.00F
$$

OHZ036-037-039>041-045>050-054>059-063>069-073>076-082>088-261500-
  CENTRAL AND SOUTHEAST OHIO

CITY           SKY/WX    TMP DP  RH WIND       PRES   REMARKS
COLUMBUS       LGT RAIN  59  52  77 S6        30.02R
OSU AIRPORT    LGT RAIN  57  55  93 SE5       30.01R
BOLTON FIELD   CLOUDY    55  54  94 SW3       30.02S
RICKENBACK AFB NOT AVBL
NEWARK         PTSUNNY   62  49  62 S9        30.01S
MARION         LGT RAIN  49  44  83 CALM      30.02R
LANCASTER      LGT RAIN  63  49  60 SW6       30.03R
ZANESVILLE     FAIR      64  47  53 S14G21    30.03S
NEW PHILLY     CLOUDY    64  50  60 SE9       30.05R
$$




USA.gov is the U.S. government's official web portal to all federal, state and local government web resources and services.